Meteo Giornale » Osservazioni meteo Svezia » Stockholm-Bromma

ore: 16:20 - Osservazioni Meteo Stockholm-Bromma
Lat. 59° 21' N Lon. 17° 57' E Alt. 14 metri s.l.m.

molto_nuvoloso

18 °C

Molto Nuvoloso

Temp. 24 Ore

16 °C

19 °C

Sud-Ovest

13 Km/h

Dew point 12 °C

Umidità 67 %

Visibilità  10 Km

Il sole sorge alle ore 05:42

Il sole tramonta alle ore 19:54

Data e Ora Cielo e Fenomeni T °C DP °C Um. % Pres. hPa Vis. km Vento km/h
Oggi h: 16:20 molto_nuvoloso Molto Nuvoloso 18 12 67 1006 10 SO 13
Oggi h: 15:50 molto_nuvoloso Molto Nuvoloso 18 13 72 1006 10 SO 14.8
Oggi h: 15:20 molto_nuvoloso Molto Nuvoloso 18 13 72 1006 10 SO 18.5
Oggi h: 14:50 molto_nuvoloso Molto Nuvoloso 18 13 72 1006 10 SO 14.8
Oggi h: 14:20 molto_nuvoloso Molto Nuvoloso 19 13 68 1006 10 SO 14.8
Oggi h: 13:50 molto_nuvoloso Molto Nuvoloso 19 14 72 1006 10 O/SO 14.8
Oggi h: 13:20 molto_nuvoloso Molto Nuvoloso 19 14 72 1005 10 O 16.7
Oggi h: 12:50 molto_nuvoloso Molto Nuvoloso 19 15 77 1005 10 O 18.5
Oggi h: 12:20 molto_nuvoloso Molto Nuvoloso 18 15 82 1005 10 O 18.5
Oggi h: 11:50 molto_nuvoloso Molto Nuvoloso 18 15 82 1005 10 O/SO 18.5
Oggi h: 11:20 molto_nuvoloso Molto Nuvoloso 18 15 82 1005 10 O/SO 20.3
Oggi h: 10:50 molto_nuvoloso Molto Nuvoloso 17 15 88 1005 10 O/SO 18.5
Oggi h: 10:20 molto_nuvoloso Molto Nuvoloso 17 16 93 1004 10 O/SO 14.8
Oggi h: 09:50 coperto_pioggia Pioviggine 16 15 93 1004 8 O/SO 13
Oggi h: 09:20 molto_nuvoloso Molto Nuvoloso 16 16 100 1004 5 O 16.7
Oggi h: 08:50 coperto Coperto 16 16 100 1004 7 O 18.5
Oggi h: 08:20 coperto_pioggia Pioggia 17 16 93 1003 10 O/SO 14.8
Oggi h: 07:50 molto_nuvoloso Molto Nuvoloso 17 16 93 1003 10 O 16.7
Oggi h: 07:20 molto_nuvoloso Molto Nuvoloso 17 16 93 1003 8 O/SO 16.7
Oggi h: 06:50 molto_nuvoloso Molto Nuvoloso 17 16 93 1002 10 O/SO 16.7
Oggi h: 06:20 coperto_pioggia Pioggia 17 16 93 1002 6 O/SO 16.7
Oggi h: 05:50 coperto Coperto 17 16 93 1002 10 O/SO 11.1
Oggi h: 05:20 coperto Coperto 17 16 93 1002 10 O/SO 7.4
Oggi h: 04:50 coperto Coperto 17 17 100 1002 10 O/SO 7.4
Oggi h: 04:20 coperto Coperto 17 16 93 1002 10 SO 7.4
Oggi h: 03:50 coperto Coperto 17 16 93 1002 10 N 3.7
Oggi h: 03:20 coperto Coperto 17 16 93 1002 10 N 0
Oggi h: 02:50 coperto Coperto 17 16 93 1002 10 N 0
Oggi h: 02:20 coperto Coperto 17 16 93 1002 10 N 0
Oggi h: 01:50 coperto Coperto 17 16 93 1002 10 N 3.7
Oggi h: 01:20 coperto Coperto 17 16 93 1002 10 N 5.5
Oggi h: 00:50 molto_nuvoloso Molto Nuvoloso 17 16 93 1002 10 N 5.5
Oggi h: 00:20 molto_nuvoloso Molto Nuvoloso 17 16 93 1002 10 N 5.5
Ieri h: 23:50 coperto Coperto 17 16 93 1002 10 N 3.7
Ieri h: 23:20 coperto Coperto 18 16 88 1002 10 N 5.5
Ieri h: 22:50 coperto Coperto 18 17 93 1002 10 SE 7.4
Ieri h: 22:20 coperto Coperto 18 17 93 1003 10 SE 7.4
Ieri h: 21:50 molto_nuvoloso Molto Nuvoloso 18 17 93 1003 10 SE 7.4
Ieri h: 21:20 molto_nuvoloso Molto Nuvoloso 18 17 93 1003 10 SE 9.3
Ieri h: 20:50 molto_nuvoloso Molto Nuvoloso 18 17 93 1003 10 SE 7.4
Ieri h: 20:20 molto_nuvoloso Molto Nuvoloso 18 17 93 1003 10 SE 9.3
Ieri h: 19:50 molto_nuvoloso Molto Nuvoloso 18 16 88 1003 10 S/SE 9.3
Ieri h: 19:20 molto_nuvoloso Molto Nuvoloso 18 16 88 1003 10 S/SE 11.1
Ieri h: 18:50 molto_nuvoloso Molto Nuvoloso 18 16 88 1003 10 SE 13
Ieri h: 18:20 molto_nuvoloso Molto Nuvoloso 18 16 88 1003 10 SE 13
Ieri h: 17:50 molto_nuvoloso Molto Nuvoloso 17 16 93 1004 10 E/SE 14.8
Ieri h: 17:20 molto_nuvoloso Molto Nuvoloso 17 16 93 1004 10 SE 11.1
Ieri h: 16:50 nuvoloso_piovaschi Pioggia 18 16 88 1004 10 S/SE 11.1